period_start,C,m1,H,J0,J1,J2,J3,J4,J5,JA,JB,JC,JD,JJ,JK,JN,#
2018-10-16 00:03:01,0.00,0.00,0.00,22.17,26.57,28.61,-0.05,0.90,1020.04,2028.96,3696.00,3073.96,3536.01,0.00,0.00,0.00,0000 0000 0000 A000 020008
2018-10-16 00:08:03,0.00,0.00,0.00,22.16,26.57,28.64,-0.05,0.83,1020.04,2028.97,3696.00,3073.96,3536.00,0.00,0.00,0.00,0000 0000 0000 A000 020008
2018-10-16 00:13:04,0.00,0.00,0.00,22.14,26.56,28.62,-0.05,0.79,1020.03,2028.95,3696.00,3073.96,3536.00,0.00,0.00,0.00,0000 0000 0000 A000 020008
2018-10-16 00:18:05,0.00,0.00,0.00,22.13,26.55,28.57,-0.05,0.76,1020.01,2028.97,3696.00,3073.98,3536.00,0.00,0.00,0.00,0000 0000 0000 A000 020008
2018-10-16 00:23:06,0.00,0.00,0.00,22.12,26.55,28.61,-0.05,0.78,1020.00,2028.97,3696.00,3073.96,3536.00,0.00,0.00,0.00,0000 0000 0000 A000 020008
2018-10-16 00:28:07,0.00,0.00,0.00,22.12,26.55,28.50,-0.05,0.76,1019.82,2028.97,3696.00,3073.96,3536.00,0.00,0.00,0.00,0000 0000 0000 A000 020008
2018-10-16 00:33:08,0.00,0.00,0.00,22.12,26.55,28.54,-0.05,0.75,1019.73,2028.96,3696.00,3073.97,3536.01,0.00,0.00,0.00,0000 0000 0000 A000 020008
2018-10-16 00:38:10,0.00,0.00,0.00,22.11,26.55,28.54,-0.05,0.74,1019.59,2028.97,3696.00,3073.98,3536.01,0.00,0.00,0.00,0000 0000 0000 A000 020008
2018-10-16 00:43:11,0.00,0.00,0.00,22.12,26.55,28.51,-0.05,0.77,1019.59,2028.97,3696.00,3073.97,3536.01,0.00,0.00,0.00,0000 0000 0000 A000 020008
2018-10-16 00:48:12,0.00,0.00,0.00,22.12,26.54,28.56,-0.05,0.76,1019.57,2028.98,3696.00,3073.98,3536.01,0.00,0.00,0.00,0000 0000 0000 A000 020008
2018-10-16 00:53:13,0.00,0.00,0.00,22.12,26.54,28.50,-0.05,0.75,1019.57,2028.98,3696.00,3073.98,3536.01,0.00,0.00,0.00,0000 0000 0000 A000 020008
2018-10-16 00:58:15,0.00,0.00,0.00,22.14,26.53,28.54,-0.05,0.77,1019.57,2028.96,3696.01,3073.99,3536.05,0.00,0.00,0.00,0000 0000 0000 A000 020008
2018-10-16 01:03:16,0.00,0.00,0.00,22.18,26.52,28.45,-0.05,0.76,1019.56,2028.98,3696.04,3073.99,3536.16,0.00,0.00,0.00,0000 0000 0000 A000 020008
2018-10-16 01:08:17,0.00,0.00,0.00,22.21,26.52,28.49,-0.05,0.86,1019.55,2028.98,3696.05,3073.99,3536.23,0.00,0.00,0.00,0000 0000 0000 A000 020008
2018-10-16 01:13:19,0.00,0.00,0.00,22.22,26.52,28.57,-0.05,0.79,1019.57,2028.99,3696.03,3073.99,3536.22,0.00,0.00,0.00,0000 0000 0000 A000 020008
2018-10-16 01:18:20,0.00,0.00,0.00,22.24,26.52,28.58,-0.05,0.75,1019.56,2028.99,3696.03,3073.99,3536.12,0.00,0.00,0.00,0000 0000 0000 A000 020008
2018-10-16 01:23:21,0.00,0.00,0.00,22.22,26.52,28.65,-0.05,0.78,1019.55,2028.99,3696.04,3073.99,3536.32,0.00,0.00,0.00,0000 0000 0000 A000 020008
2018-10-16 01:28:22,0.00,0.00,0.00,22.14,26.52,28.63,-0.05,0.78,1019.56,2028.98,3696.04,3073.99,3536.21,0.00,0.00,0.00,0000 0000 0000 A000 020008
2018-10-16 01:33:24,0.00,0.00,0.00,22.09,26.52,28.55,-0.05,0.89,1019.55,2028.98,3696.06,3073.99,3536.51,0.00,0.00,0.00,0000 0000 0000 A000 020008
2018-10-16 01:38:25,0.00,0.00,0.00,22.07,26.52,28.54,-0.05,1.02,1019.55,2028.99,3696.05,3073.99,3536.28,0.00,0.00,0.00,0000 0000 0000 A000 020008
2018-10-16 01:43:26,0.00,0.00,0.00,22.08,26.52,28.49,-0.05,0.93,1019.55,2028.99,3696.15,3073.99,3536.60,0.00,0.00,0.00,0000 0000 0000 A000 020008
2018-10-16 01:48:28,0.00,0.00,0.00,22.09,26.51,28.45,-0.05,1.02,1019.55,2028.99,3696.46,3074.00,3536.90,0.00,0.00,0.00,0000 0000 0000 A000 020008
2018-10-16 01:53:29,0.00,0.00,0.00,22.11,26.51,28.48,-0.05,0.97,1019.55,2028.99,3696.41,3074.00,3536.90,0.00,0.00,0.00,0000 0000 0000 A000 020008
2018-10-16 01:58:31,0.00,0.00,0.00,22.14,26.50,28.50,-0.05,1.01,1019.47,2028.99,3696.17,3074.00,3536.55,0.00,0.00,0.00,0000 0000 0000 A000 020008
2018-10-16 02:03:32,0.00,0.00,0.00,22.17,26.50,28.53,-0.05,1.11,1019.44,2028.99,3696.11,3074.00,3536.55,0.00,0.00,0.00,0000 0000 0000 A000 020008
2018-10-16 02:08:33,0.00,0.00,0.00,22.19,26.50,28.50,-0.05,1.22,1019.18,2028.99,3696.15,3074.00,3536.59,0.00,0.00,0.00,0000 0000 0000 A000 020008
2018-10-16 02:13:34,0.00,0.00,0.00,22.20,26.50,28.56,-0.05,1.21,1019.10,2028.99,3696.12,3074.00,3536.39,0.00,0.00,0.00,0000 0000 0000 A000 020008
2018-10-16 02:18:35,0.00,0.00,0.00,22.22,26.50,28.51,-0.05,0.87,1019.23,2028.99,3696.08,3074.00,3536.42,0.00,0.00,0.00,0000 0000 0000 A000 020008
2018-10-16 02:23:36,0.00,0.00,0.00,22.24,26.51,28.58,-0.05,1.06,1019.14,2028.99,3696.06,3074.00,3536.33,0.00,0.00,0.00,0000 0000 0000 A000 020008
2018-10-16 02:28:37,0.00,0.00,0.00,22.26,26.52,28.56,-0.05,1.23,1019.08,2028.99,3696.03,3074.00,3536.27,0.00,0.00,0.00,0000 0000 0000 A000 020008
2018-10-16 02:33:38,0.00,0.00,0.00,22.28,26.52,28.61,-0.05,1.19,1019.07,2028.99,3696.03,3074.00,3536.17,0.00,0.00,0.00,0000 0000 0000 A000 020008
2018-10-16 02:38:40,0.00,0.00,0.00,22.29,26.52,28.62,-0.05,1.38,1019.06,2028.99,3696.06,3074.00,3536.19,0.00,0.00,0.00,0000 0000 0000 A000 020008
2018-10-16 02:43:41,0.00,0.00,0.00,22.32,26.52,28.61,-0.05,1.11,1019.07,2028.99,3696.04,3074.00,3536.12,0.00,0.00,0.00,0000 0000 0000 A000 020008
2018-10-16 02:48:42,0.00,0.00,0.00,22.32,26.52,28.68,-0.05,1.20,1019.06,2028.99,3696.03,3074.00,3536.10,0.00,0.00,0.00,0000 0000 0000 A000 020008
2018-10-16 02:53:43,0.00,0.00,0.00,22.32,26.53,28.64,-0.05,1.07,1019.09,2028.98,3696.03,3074.00,3536.09,0.00,0.00,0.00,0000 0000 0000 A000 020008
2018-10-16 02:58:44,0.00,0.00,0.00,22.34,26.54,28.64,-0.05,1.23,1019.07,2028.97,3696.01,3073.99,3536.02,0.00,0.00,0.00,0000 0000 0000 A000 020008
2018-10-16 03:03:46,0.00,0.00,0.00,22.34,26.55,28.66,-0.05,1.13,1019.08,2028.96,3696.01,3073.99,3536.02,0.00,0.00,0.00,0000 0000 0000 A000 020008
2018-10-16 03:08:47,0.00,0.00,0.00,22.35,26.55,28.69,-0.05,1.10,1019.06,2028.98,3696.02,3073.99,3536.05,0.00,0.00,0.00,0000 0000 0000 A000 020008
2018-10-16 03:13:48,0.00,0.00,0.00,22.37,26.55,28.72,-0.05,1.06,1019.06,2028.99,3696.02,3073.99,3536.05,0.00,0.00,0.00,0000 0000 0000 A000 020008
2018-10-16 03:18:49,0.00,0.00,0.00,22.37,26.56,28.69,-0.05,1.21,1018.91,2028.98,3696.00,3073.99,3536.01,0.00,0.00,0.00,0000 0000 0000 A000 020008
2018-10-16 03:23:51,0.00,0.00,0.00,22.39,26.57,28.69,-0.05,1.05,1018.90,2028.95,3696.00,3073.97,3536.01,0.00,0.00,0.00,0000 0000 0000 A000 020008
2018-10-16 03:28:52,0.00,0.00,0.00,22.40,26.57,28.68,-0.05,1.04,1018.79,2028.94,3696.00,3073.96,3536.00,0.00,0.00,0.00,0000 0000 0000 A000 020008
2018-10-16 03:33:53,0.00,0.00,0.00,22.42,26.57,28.71,-0.05,0.94,1018.61,2028.92,3696.00,3073.93,3536.00,0.00,0.00,0.00,0000 0000 0000 A000 020008
2018-10-16 03:38:54,0.00,0.00,0.00,22.43,26.57,28.74,-0.05,0.97,1018.60,2028.90,3696.00,3073.89,3536.00,0.00,0.00,0.00,0000 0000 0000 A000 020008
2018-10-16 03:43:55,0.00,0.00,0.00,22.44,26.59,28.74,-0.05,1.11,1018.59,2028.74,3695.99,3073.67,3535.99,0.00,0.00,0.00,0000 0000 0000 A000 020008
2018-10-16 03:48:56,0.00,0.00,0.00,22.45,26.60,28.76,-0.05,0.88,1018.58,2028.84,3695.99,3073.72,3535.99,0.00,0.00,0.00,0000 0000 0000 A000 020008
2018-10-16 03:53:58,0.00,0.00,0.00,22.47,26.60,28.75,-0.05,0.86,1018.57,2028.62,3695.98,3073.49,3535.99,0.00,0.00,0.00,0000 0000 0000 A000 020008
2018-10-16 03:58:59,0.00,0.00,0.00,22.49,26.60,28.76,-0.05,0.90,1018.55,2028.56,3695.97,3073.33,3535.99,0.00,0.00,0.00,0000 0000 0000 A000 020008
2018-10-16 04:04:00,0.00,0.00,0.00,22.51,26.62,28.79,-0.05,0.93,1018.57,2028.58,3695.97,3073.23,3535.98,0.00,0.00,0.00,0000 0000 0000 A000 020008
2018-10-16 04:09:01,0.00,0.00,0.00,22.52,26.62,28.79,-0.05,0.88,1018.57,2028.27,3695.97,3073.10,3535.97,0.00,0.00,0.00,0000 0000 0000 A000 020008
2018-10-16 04:14:02,0.00,0.00,0.00,22.54,26.62,28.82,-0.05,0.87,1018.57,2028.15,3695.90,3073.05,3535.97,0.00,0.00,0.00,0000 0000 0000 A000 020008
2018-10-16 04:19:03,0.00,0.00,0.00,22.54,26.64,28.85,-0.05,0.96,1018.57,2028.12,3695.87,3073.02,3535.94,0.00,0.00,0.00,0000 0000 0000 A000 020008
2018-10-16 04:24:05,0.00,0.00,0.00,22.56,26.65,28.84,-0.05,0.93,1018.56,2028.03,3695.48,3073.01,3535.71,0.00,0.00,0.00,0000 0000 0000 A000 020008
2018-10-16 04:29:06,0.00,0.00,0.00,22.57,26.65,28.88,-0.05,0.93,1018.46,2028.05,3695.25,3073.00,3535.47,0.00,0.00,0.00,0000 0000 0000 A000 020008
2018-10-16 04:34:07,0.00,0.00,0.00,22.58,26.67,28.87,-0.05,0.98,1018.38,2028.01,3695.09,3073.00,3535.17,0.00,0.00,0.00,0000 0000 0000 A000 020008
2018-10-16 04:39:09,0.00,0.00,0.00,22.59,26.67,28.87,-0.05,0.97,1018.18,2028.01,3695.02,3073.00,3535.04,0.00,0.00,0.00,0000 0000 0000 A000 020008
2018-10-16 04:44:10,0.00,0.00,0.00,22.59,26.67,28.89,-0.05,1.04,1018.08,2028.01,3695.05,3073.00,3535.04,0.00,0.00,0.00,0000 0000 0000 A000 020008
2018-10-16 04:49:11,0.00,0.00,0.00,22.60,26.70,28.91,-0.05,1.05,1018.08,2028.01,3695.01,3073.00,3535.02,0.00,0.00,0.00,0000 0000 0000 A000 020008
2018-10-16 04:54:12,0.00,0.00,0.00,22.60,26.70,28.92,-0.05,1.11,1018.01,2028.01,3695.00,3072.99,3535.00,0.00,0.00,0.00,0000 0000 0000 A000 020008
2018-10-16 04:59:13,0.00,0.00,0.00,22.60,26.70,28.94,-0.05,1.12,1017.74,2028.00,3695.00,3072.97,3535.00,0.00,0.00,0.00,0000 0000 0000 A000 020008
2018-10-16 05:04:14,0.00,0.00,0.00,22.62,26.72,28.94,-0.05,1.13,1017.60,2028.00,3695.00,3072.97,3535.00,0.00,0.00,0.00,0000 0000 0000 A000 020008
2018-10-16 05:09:15,0.00,0.00,0.00,22.62,26.72,28.99,-0.05,1.21,1017.59,2028.00,3694.99,3072.95,3534.99,0.00,0.00,0.00,0000 0000 0000 A000 020008
2018-10-16 05:14:16,0.00,0.00,0.00,22.62,26.73,28.98,-0.05,1.29,1017.49,2028.00,3694.99,3072.92,3534.99,0.00,0.00,0.00,0000 0000 0000 A000 020008
2018-10-16 05:19:17,0.00,0.00,0.00,22.62,26.75,28.96,-0.05,1.23,1017.16,2028.00,3694.99,3072.93,3534.99,0.00,0.00,0.00,0000 0000 0000 A000 020008
2018-10-16 05:24:18,0.00,0.00,0.00,22.62,26.75,29.02,-0.05,1.34,1017.13,2028.00,3694.98,3072.81,3534.99,0.00,0.00,0.00,0000 0000 0000 A000 020008
2018-10-16 05:29:20,0.00,0.00,0.00,22.62,26.76,29.02,-0.05,1.27,1017.12,2028.00,3694.97,3072.63,3534.97,0.00,0.00,0.00,0000 0000 0000 A000 020008
2018-10-16 05:34:21,0.00,0.00,0.00,22.62,26.77,28.99,-0.05,1.26,1017.10,2028.00,3694.96,3072.26,3534.92,0.00,0.00,0.00,0000 0000 0000 A000 020008
2018-10-16 05:39:22,0.00,0.00,0.00,22.62,26.77,29.03,-0.05,1.31,1016.95,2028.00,3694.90,3072.16,3534.86,0.00,0.00,0.00,0000 0000 0000 A000 020008
2018-10-16 05:44:23,0.00,0.00,0.00,22.62,26.78,29.01,-0.05,1.33,1016.72,2027.99,3694.83,3072.18,3534.74,0.00,0.00,0.00,0000 0000 0000 A000 020008
2018-10-16 05:49:24,0.00,0.00,0.00,22.62,26.80,29.04,-0.05,1.29,1016.63,2027.99,3694.50,3072.04,3534.33,0.00,0.00,0.00,0000 0000 0000 A000 020008
2018-10-16 05:54:25,0.00,0.00,0.00,22.62,26.80,29.00,-0.05,1.33,1016.62,2027.99,3694.22,3072.01,3534.16,0.00,0.00,0.00,0000 0000 0000 A000 020008
2018-10-16 05:59:26,0.00,0.00,0.00,22.62,26.80,29.04,-0.05,1.28,1016.62,2027.97,3694.13,3072.01,3534.07,0.00,0.00,0.00,0000 0000 0000 A000 020008
2018-10-16 06:04:28,0.00,0.00,0.00,22.60,26.81,29.03,-0.05,1.24,1016.55,2027.96,3694.10,3072.01,3534.04,0.00,0.00,0.00,0000 0000 0000 A000 020008
2018-10-16 06:09:29,0.00,0.00,0.00,22.59,26.82,29.00,-0.05,1.29,1016.37,2027.97,3694.09,3072.00,3534.03,0.00,0.00,0.00,0000 0000 0000 A000 020008
2018-10-16 06:14:30,0.00,0.00,0.00,22.57,26.82,29.01,-0.05,1.20,1016.37,2027.98,3694.08,3072.00,3534.03,0.00,0.00,0.00,0000 0000 0000 A000 020008
2018-10-16 06:19:31,0.00,0.00,0.00,22.56,26.82,29.03,-0.05,1.25,1016.22,2027.97,3694.01,3072.00,3534.01,0.00,0.00,0.00,0000 0000 0000 A000 020008
2018-10-16 06:24:32,0.00,0.00,0.00,22.54,26.82,29.02,-0.05,1.18,1016.16,2027.96,3694.02,3071.99,3534.01,0.00,0.00,0.00,0000 0000 0000 A000 020008
2018-10-16 06:29:33,0.00,0.00,0.00,22.54,26.82,29.07,-0.05,1.23,1016.14,2027.95,3694.02,3071.99,3534.00,0.00,0.00,0.00,0000 0000 0000 A000 020008
2018-10-16 06:34:34,0.00,0.00,0.00,22.53,26.82,29.06,-0.05,1.13,1016.14,2027.96,3694.01,3071.99,3534.00,0.00,0.00,0.00,0000 0000 0000 A000 020008
2018-10-16 06:39:36,0.00,0.00,0.00,22.51,26.83,28.97,-0.05,1.18,1016.13,2027.96,3694.02,3071.99,3534.00,0.00,0.00,0.00,0000 0000 0000 A000 020008
2018-10-16 06:44:37,0.00,0.00,0.00,22.49,26.83,28.97,-0.05,1.15,1016.13,2027.96,3694.03,3072.00,3534.02,0.00,0.00,0.00,0000 0000 0000 A000 020008
2018-10-16 06:49:38,0.00,0.00,0.00,22.49,26.83,28.97,-0.05,1.09,1016.10,2027.97,3694.06,3072.00,3534.01,0.00,0.00,0.00,0000 0000 0000 A000 020008
2018-10-16 06:54:39,0.00,0.00,0.00,22.47,26.83,28.96,-0.05,1.12,1015.95,2027.95,3694.02,3072.00,3534.01,0.00,0.00,0.00,0000 0000 0000 A000 020008
2018-10-16 06:59:40,0.00,0.00,0.00,22.47,26.82,28.92,-0.05,1.03,1016.03,2027.97,3694.02,3072.00,3534.03,0.00,0.00,0.00,0000 0000 0000 A000 020008
2018-10-16 07:04:42,0.00,0.00,0.00,22.47,26.82,28.92,-0.05,0.98,1016.13,2027.94,3694.01,3072.00,3534.00,0.00,0.00,0.00,0000 0000 0000 A000 020008
2018-10-16 07:09:43,0.00,0.00,0.00,22.47,26.82,28.91,-0.05,0.84,1016.13,2027.95,3694.03,3072.00,3534.02,0.00,0.00,0.00,0000 0000 0000 A000 020008
2018-10-16 07:14:44,0.00,0.00,0.00,22.47,26.82,28.91,-0.05,0.79,1016.13,2027.91,3694.00,3072.00,3534.01,0.00,0.00,0.00,0000 0000 0000 A000 020008
2018-10-16 07:19:45,0.00,0.00,0.00,22.47,26.82,28.88,-0.05,0.80,1016.16,2027.95,3694.01,3072.00,3534.01,0.00,0.00,0.00,0000 0000 0000 A000 020008
2018-10-16 07:24:47,0.00,0.00,0.00,22.47,26.82,28.92,-0.05,0.83,1016.17,2027.96,3694.01,3072.00,3534.01,0.00,0.00,0.00,0000 0000 0000 A000 020008
2018-10-16 07:29:48,0.00,0.00,0.00,22.48,26.82,28.90,-0.05,0.80,1016.19,2027.97,3694.02,3072.00,3534.01,0.00,0.00,0.00,0000 0000 0000 A000 020008
2018-10-16 07:34:49,0.00,0.00,0.00,22.50,26.82,28.88,-0.05,0.82,1016.34,2027.95,3694.01,3072.00,3534.01,0.00,0.00,0.00,0000 0000 0000 A000 020008
2018-10-16 07:39:51,0.00,0.00,0.00,22.52,26.82,28.84,-0.05,0.73,1016.55,2027.94,3694.02,3072.00,3534.01,0.00,0.00,0.00,0000 0000 0000 A000 020008
2018-10-16 07:44:52,0.00,0.00,0.00,22.50,26.82,28.89,-0.05,0.74,1016.60,2027.93,3694.01,3072.00,3534.01,0.00,0.00,0.00,0000 0000 0000 A000 020008
2018-10-16 07:49:53,0.00,0.00,0.00,22.50,26.82,28.86,-0.05,0.82,1016.57,2027.96,3694.00,3072.00,3534.00,0.00,0.00,0.00,0000 0000 0000 A000 020008
2018-10-16 07:54:54,0.00,0.00,0.00,22.52,26.82,28.82,-0.05,0.80,1016.61,2027.93,3694.01,3072.00,3534.00,0.00,0.00,0.00,0000 0000 0000 A000 020008
2018-10-16 07:59:56,0.00,0.00,0.00,22.52,26.82,28.85,-0.05,0.76,1016.62,2027.89,3694.00,3072.00,3534.00,0.00,0.00,0.00,0000 0000 0000 A000 020008
2018-10-16 08:04:57,0.00,0.00,0.00,22.53,26.83,28.85,-0.05,0.73,1016.62,2027.84,3694.00,3072.00,3534.00,0.00,0.00,0.00,0000 0000 0000 A000 020008
2018-10-16 08:09:58,0.00,0.00,0.00,22.55,26.84,28.87,-0.05,0.72,1016.64,2027.87,3694.00,3072.00,3534.00,0.00,0.00,0.00,0000 0000 0000 A000 020008
2018-10-16 08:14:59,0.00,0.00,0.00,22.57,26.85,28.91,-0.05,0.72,1016.64,2027.80,3694.00,3072.00,3534.00,0.00,0.00,0.00,0000 0000 0000 A000 020008
2018-10-16 08:20:00,0.00,0.00,0.00,22.59,26.85,28.94,-0.05,0.75,1016.62,2027.77,3694.00,3071.99,3534.00,0.00,0.00,0.00,0000 0000 0000 A000 020008
2018-10-16 08:25:02,0.00,0.00,0.00,22.59,26.85,28.93,-0.05,0.79,1016.62,2027.62,3693.99,3071.98,3534.00,0.00,0.00,0.00,0000 0000 0000 A000 020008
2018-10-16 08:30:03,0.00,0.00,0.00,22.62,26.86,28.97,-0.05,0.84,1016.48,2027.49,3693.99,3071.98,3534.00,0.00,0.00,0.00,0000 0000 0000 A000 020008
2018-10-16 08:35:04,0.00,0.00,0.00,22.64,26.87,28.99,-0.05,0.88,1016.17,2027.29,3693.99,3071.98,3533.99,0.00,0.00,0.00,0000 0000 0000 A000 020008
2018-10-16 08:40:05,0.00,0.00,0.00,22.65,26.87,29.04,-0.05,0.95,1016.12,2027.40,3693.99,3071.98,3533.99,0.00,0.00,0.00,0000 0000 0000 A000 020008
2018-10-16 08:45:06,0.00,0.00,0.00,22.67,26.88,29.06,-0.05,0.97,1015.94,2027.31,3693.98,3071.96,3533.98,0.00,0.00,0.00,0000 0000 0000 A000 020008
2018-10-16 08:50:07,0.00,0.00,0.00,22.67,26.90,29.07,-0.05,0.93,1015.73,2027.15,3693.98,3071.91,3533.98,0.00,0.00,0.00,0000 0000 0000 A000 020008
2018-10-16 08:55:08,0.00,0.00,0.00,22.69,26.90,29.05,-0.05,0.88,1015.70,2027.09,3693.96,3071.84,3533.94,0.00,0.00,0.00,0000 0000 0000 A000 020008
2018-10-16 09:00:10,0.00,0.00,0.00,22.69,26.90,29.04,-0.05,0.82,1015.71,2027.09,3693.97,3071.83,3533.95,0.00,0.00,0.00,0000 0000 0000 A000 020008
2018-10-16 09:05:11,0.00,0.00,0.00,22.67,26.91,29.06,-0.05,0.79,1015.74,2027.07,3693.97,3071.77,3533.94,0.00,0.00,0.00,0000 0000 0000 A000 020008
2018-10-16 09:10:12,0.00,0.00,0.00,22.67,26.92,29.09,-0.05,0.76,1015.83,2027.05,3693.93,3071.57,3533.80,0.00,0.00,0.00,0000 0000 0000 A000 020008
2018-10-16 09:15:13,0.00,0.00,0.00,22.66,26.92,29.03,-0.05,0.76,1016.04,2027.05,3693.72,3071.29,3533.57,0.00,0.00,0.00,0000 0000 0000 A000 020008
2018-10-16 09:20:14,0.00,0.00,0.00,22.64,26.92,29.05,-0.05,0.75,1016.13,2027.04,3693.73,3071.24,3533.46,0.00,0.00,0.00,0000 0000 0000 A000 020008
2018-10-16 09:25:16,0.00,0.00,0.00,22.65,26.94,29.06,-0.05,0.69,1016.13,2027.02,3693.35,3071.08,3533.17,0.00,0.00,0.00,0000 0000 0000 A000 020008
2018-10-16 09:30:17,0.00,0.00,0.00,22.66,26.95,29.04,-0.05,0.71,1016.15,2027.01,3693.10,3071.01,3533.05,0.00,0.00,0.00,0000 0000 0000 A000 020008
2018-10-16 09:35:19,0.00,0.00,0.00,22.67,26.95,29.06,-0.05,0.70,1016.14,2027.00,3693.06,3071.02,3533.03,0.00,0.00,0.00,0000 0000 0000 A000 020008
2018-10-16 09:40:20,0.00,0.00,0.00,22.69,26.96,29.06,-0.05,0.71,1016.15,2027.00,3693.01,3071.01,3533.01,0.00,0.00,0.00,0000 0000 0000 A000 020008
2018-10-16 09:45:21,0.00,0.00,0.00,22.70,26.97,29.02,-0.05,0.71,1016.15,2027.00,3693.00,3071.00,3533.00,0.00,0.00,0.00,0000 0000 0000 A000 020008
2018-10-16 09:50:22,0.00,0.00,0.00,22.72,26.97,29.06,-0.05,0.74,1016.13,2027.00,3693.00,3071.00,3533.00,0.00,0.00,0.00,0000 0000 0000 A000 020008
2018-10-16 09:55:23,0.00,0.00,0.00,22.73,26.99,29.09,-0.05,0.75,1016.13,2027.00,3693.00,3071.00,3533.00,0.00,0.00,0.00,0000 0000 0000 A000 020008
2018-10-16 10:00:25,0.00,0.00,0.00,22.74,27.00,29.07,-0.05,0.75,1016.13,2027.00,3693.00,3071.00,3533.00,0.00,0.00,0.00,0000 0000 0000 A000 020008
2018-10-16 10:05:26,0.00,0.00,0.00,22.76,27.00,29.12,-0.05,0.73,1016.13,2027.00,3693.00,3071.00,3532.99,0.00,0.00,0.00,0000 0000 0000 A000 020008
2018-10-16 10:10:27,0.00,0.00,0.00,22.78,27.02,29.14,-0.05,0.72,1016.13,2026.99,3692.99,3071.00,3532.98,0.00,0.00,0.00,0000 0000 0000 A000 020008
2018-10-16 10:15:28,0.00,0.00,0.00,22.81,27.02,29.18,-0.05,0.75,1016.11,2026.99,3692.97,3071.00,3532.96,0.00,0.00,0.00,0000 0000 0000 A000 020008
2018-10-16 10:20:29,0.00,0.00,0.00,22.82,27.05,29.19,-0.05,0.74,1016.10,2026.99,3692.98,3070.99,3532.97,0.00,0.00,0.00,0000 0000 0000 A000 020008
2018-10-16 10:25:30,0.00,0.00,0.00,22.85,27.05,29.24,-0.05,0.69,1015.89,2026.99,3692.98,3070.98,3532.92,0.00,0.00,0.00,0000 0000 0000 A000 020008
2018-10-16 10:30:32,0.00,0.00,0.00,22.88,27.07,29.21,-0.05,0.70,1015.68,2026.98,3692.94,3070.98,3532.65,0.00,0.00,0.00,0000 0000 0000 A000 020008
2018-10-16 10:35:33,0.00,0.00,0.00,22.89,27.07,29.25,-0.05,0.65,1015.64,2026.98,3692.83,3070.92,3532.32,0.00,0.00,0.00,0000 0000 0000 A000 020008
2018-10-16 10:40:34,0.00,0.00,0.00,22.91,27.10,29.28,-0.05,0.69,1015.52,2026.97,3692.80,3070.90,3532.21,0.00,0.00,0.00,0000 0000 0000 A000 020008
2018-10-16 10:45:35,0.00,0.00,0.00,22.93,27.10,29.29,-0.05,0.72,1015.19,2026.93,3692.51,3070.69,3532.10,0.00,0.00,0.00,0000 0000 0000 A000 020008
2018-10-16 10:50:37,0.00,0.00,0.00,22.94,27.12,29.33,-0.05,0.78,1015.17,2026.82,3692.08,3070.14,3532.00,0.00,0.00,0.00,0000 0000 0000 A000 020008
2018-10-16 10:55:38,0.00,0.00,0.00,22.96,27.13,29.33,-0.05,0.81,1015.15,2026.45,3692.01,3070.03,3532.00,0.00,0.00,0.00,0000 0000 0000 A000 020008
2018-10-16 11:00:39,0.00,0.00,0.00,22.97,27.15,29.36,-0.05,0.82,1015.15,2026.29,3692.00,3070.00,3532.00,0.00,0.00,0.00,0000 0000 0000 A000 020008
2018-10-16 11:05:40,0.00,0.00,0.00,22.98,27.15,29.35,-0.05,0.79,1015.15,2026.10,3692.00,3070.00,3531.99,0.00,0.00,0.00,0000 0000 0000 A000 020008
2018-10-16 11:10:42,0.00,0.00,0.00,22.98,27.17,29.37,-0.05,0.78,1015.14,2026.05,3692.00,3070.00,3531.98,0.00,0.00,0.00,0000 0000 0000 A000 020008
2018-10-16 11:15:43,0.00,0.00,0.00,22.97,27.17,29.37,-0.05,0.82,1015.14,2026.02,3691.99,3070.00,3531.88,0.00,0.00,0.00,0000 0000 0000 A000 020008
2018-10-16 11:20:44,0.00,0.00,0.00,22.99,27.20,29.43,-0.05,0.75,1015.04,2026.02,3691.98,3070.00,3531.80,0.00,0.00,0.00,0000 0000 0000 A000 020008
2018-10-16 11:25:45,0.00,0.00,0.00,23.00,27.20,29.39,-0.05,0.75,1014.95,2026.01,3691.98,3069.99,3531.63,0.00,0.00,0.00,0000 0000 0000 A000 020008
2018-10-16 11:30:46,0.00,0.00,0.00,22.99,27.21,29.34,-0.05,0.75,1014.75,2026.01,3691.92,3069.98,3531.35,0.00,0.00,0.00,0000 0000 0000 A000 020008
2018-10-16 11:35:47,0.00,0.00,0.00,22.99,27.22,29.36,-0.05,0.69,1014.72,2026.00,3691.84,3069.96,3531.11,0.00,0.00,0.00,0000 0000 0000 A000 020008
2018-10-16 11:40:48,0.00,0.00,0.00,22.99,27.22,29.41,-0.05,0.71,1014.69,2026.00,3691.45,3069.85,3531.05,0.00,0.00,0.00,0000 0000 0000 A000 020008
2018-10-16 11:45:49,0.00,0.00,0.00,22.98,27.24,29.35,-0.05,0.71,1014.68,2026.00,3691.11,3069.48,3531.00,0.00,0.00,0.00,0000 0000 0000 A000 020008
2018-10-16 11:50:51,0.00,0.00,0.00,22.98,27.25,29.34,-0.05,0.71,1014.68,2026.00,3691.03,3069.18,3531.00,0.00,0.00,0.00,0000 0000 0000 A000 020008
2018-10-16 11:55:52,0.00,0.00,0.00,22.99,27.25,29.40,-0.05,0.72,1014.67,2026.00,3691.01,3069.05,3531.00,0.00,0.00,0.00,0000 0000 0000 A000 020008
2018-10-16 12:00:54,0.00,0.00,0.00,22.99,27.27,29.39,-0.05,0.74,1014.68,2025.99,3691.00,3069.03,3531.00,0.00,0.00,0.00,0000 0000 0000 A000 020008
2018-10-16 12:05:55,0.00,0.00,0.00,22.99,27.27,29.37,-0.05,0.73,1014.68,2025.98,3691.00,3069.02,3530.99,0.00,0.00,0.00,0000 0000 0000 A000 020008
2018-10-16 12:10:56,0.00,0.00,0.00,22.99,27.28,29.37,-0.05,0.63,1014.67,2025.99,3691.00,3069.02,3530.99,0.00,0.00,0.00,0000 0000 0000 A000 020008
2018-10-16 12:15:58,0.00,0.00,0.00,22.99,27.30,29.39,-0.05,0.53,1014.66,2025.99,3691.00,3069.02,3530.99,0.00,0.00,0.00,0000 0000 0000 A000 020008
2018-10-16 12:20:59,0.00,0.00,0.00,22.99,27.30,29.38,-0.05,0.56,1014.66,2025.97,3691.00,3069.00,3530.97,0.00,0.00,0.00,0000 0000 0000 A000 020008
2018-10-16 12:25:59,0.00,0.00,0.00,23.00,27.31,29.39,-0.05,0.63,1014.66,2025.98,3691.00,3069.00,3530.97,0.00,0.00,0.00,0000 0000 0000 A000 020008
2018-10-16 12:31:01,0.00,0.00,0.00,23.02,27.32,29.40,-0.05,0.69,1014.59,2025.95,3690.99,3069.00,3530.83,0.00,0.00,0.00,0000 0000 0000 A000 020008
2018-10-16 12:36:02,0.00,0.00,0.00,23.04,27.32,29.41,-0.05,0.74,1014.22,2025.92,3690.98,3069.00,3530.60,0.00,0.00,0.00,0000 0000 0000 A000 020008
2018-10-16 12:41:03,0.00,0.00,0.00,23.05,27.34,29.38,-0.05,0.73,1014.18,2025.81,3690.96,3069.00,3530.22,0.00,0.00,0.00,0000 0000 0000 A000 020008
2018-10-16 12:46:04,0.00,0.00,0.00,23.07,27.35,29.46,-0.05,0.74,1014.18,2025.59,3690.67,3068.98,3530.02,0.00,0.00,0.00,0000 0000 0000 A000 020008
2018-10-16 12:51:05,0.00,0.00,0.00,23.07,27.35,29.49,-0.05,0.73,1014.18,2025.50,3690.70,3068.97,3530.03,0.00,0.00,0.00,0000 0000 0000 A000 020008
2018-10-16 12:56:06,0.00,0.00,0.00,23.07,27.37,29.49,-0.05,0.74,1014.18,2025.36,3690.62,3068.95,3530.01,0.00,0.00,0.00,0000 0000 0000 A000 020008
2018-10-16 13:01:07,0.00,0.00,0.00,23.07,27.37,29.48,-0.03,0.49,1014.17,2025.44,3658.28,3073.20,3536.76,0.00,0.00,0.00,0000 0000 0000 A000 02000A
2018-10-16 13:06:09,0.00,0.00,0.00,23.07,27.37,29.51,0.00,0.25,1014.16,2025.45,3601.18,3080.96,3546.88,0.00,0.00,0.00,0000 0000 0000 A000 020008
2018-10-16 13:11:09,0.00,0.00,0.00,23.07,27.40,29.50,0.00,0.24,1013.94,2025.37,3600.23,3080.99,3546.02,0.00,0.00,0.00,0000 0000 0000 A000 020008
2018-10-16 13:16:11,0.00,0.00,0.00,23.08,27.40,29.54,0.00,0.23,1013.72,2025.18,3599.99,3080.98,3545.54,0.00,0.00,0.00,0000 0000 0000 A000 020008
2018-10-16 13:21:12,0.00,0.00,0.00,23.07,27.40,29.52,0.00,0.20,1013.71,2025.16,3599.95,3080.99,3545.04,0.00,0.00,0.00,0000 0000 0000 A000 020008
2018-10-16 13:26:13,0.00,0.00,0.00,23.09,27.42,29.54,0.00,0.22,1013.73,2025.07,3599.49,3080.98,3544.99,0.00,0.00,0.00,0000 0000 0000 A000 020008